| time (UTC) | temp C | wind direction | speed KPH | gust KPH | rain 1hr cm | rain 24hr cm | rain mn cm | humidity % | barometer mb |
| 20260502123051 | 10 | 5 | 11.3 | 20.9 | 0.00 | 1.73 | 0.00 | 85 | 1019.9 |
| 20260502123049 | 10 | 340 | 9.7 | 20.9 | 0.00 | 1.73 | 0.00 | 85 | 1023.5 |
| 20260502121545 | 10 | 342 | 8.0 | 16.1 | 0.00 | 1.73 | 0.00 | 86 | 1019.7 |
| 20260502121541 | 10 | 360 | 8.0 | 16.1 | 0.00 | 1.73 | 0.00 | 86 | 1023.3 |
| 20260502114543 | 10 | 336 | 6.4 | 19.3 | 0.00 | 1.80 | 0.00 | 86 | 1019.2 |
| 20260502114535 | 10 | 334 | 8.0 | 19.3 | 0.00 | 1.80 | 0.00 | 87 | 1022.9 |
| 20260502113043 | 10 | 352 | 6.4 | 20.9 | 0.00 | 1.80 | 0.00 | 86 | 1019.1 |
| 20260502113034 | 10 | 355 | 6.4 | 16.1 | 0.00 | 1.80 | 0.00 | 87 | 1022.9 |
| 20260502111546 | 10 | 11 | 8.0 | 19.3 | 0.00 | 1.80 | 0.00 | 86 | 1019.1 |
| 20260502111533 | 10 | 355 | 9.7 | 17.7 | 0.00 | 1.80 | 0.00 | 87 | 1022.8 |
| 20260502110044 | 10 | 352 | 6.4 | 19.3 | 0.00 | 1.80 | 0.00 | 87 | 1019.0 |
| 20260502110030 | 10 | 9 | 8.0 | 19.3 | 0.00 | 1.80 | 0.00 | 87 | 1022.6 |
| 20260502104543 | 10 | 347 | 8.0 | 17.7 | 0.00 | 3.07 | 0.00 | 88 | 1018.8 |
| 20260502104532 | 10 | 355 | 8.0 | 17.7 | 0.00 | 3.10 | 0.00 | 88 | 1022.6 |
| 20260502103101 | 10 | 348 | 3.2 | 16.1 | 0.00 | 3.07 | 0.00 | 89 | 1018.7 |
| 20260502103026 | 10 | 360 | 6.4 | 16.1 | 0.00 | 3.10 | 0.00 | 89 | 1022.5 |
| 20260502101559 | 10 | 336 | 3.2 | 8.0 | 0.00 | 3.07 | 0.00 | 89 | 1018.8 |
| 20260502101524 | 10 | 336 | 3.2 | 8.0 | 0.00 | 3.10 | 0.00 | 90 | 1022.6 |
| 20260502100110 | 10 | 318 | 0.0 | 4.8 | 0.00 | 3.07 | 0.00 | 88 | 1018.8 |
| 20260502091516 | 10 | 325 | 3.2 | 9.7 | 0.00 | 3.89 | 0.00 | 88 | 1021.4 |
| 20260502090105 | 10 | 336 | 1.6 | 6.4 | 0.00 | 3.89 | 0.00 | 88 | 1017.7 |
| 20260502071502 | 11 | 337 | 6.4 | 19.3 | 0.00 | 4.85 | 0.00 | 86 | 1020.6 |
| 20260502070052 | 11 | 328 | 4.8 | 16.1 | 0.00 | 4.85 | 0.00 | 86 | 1017.0 |
| 20260502070001 | 11 | 346 | 3.2 | 16.1 | 0.00 | 4.85 | 0.00 | 86 | 1020.6 |
| 20260502064614 | 11 | 345 | 8.0 | 17.7 | 0.00 | 5.28 | 0.00 | 86 | 1020.7 |
| 20260502064553 | 11 | 348 | 3.2 | 17.7 | 0.00 | 5.28 | 0.00 | 85 | 1017.3 |
| 20260502063108 | 11 | 344 | 4.8 | 16.1 | 0.00 | 5.28 | 0.00 | 85 | 1020.9 |
| 20260502063045 | 11 | 15 | 4.8 | 16.1 | 0.00 | 5.28 | 0.00 | 85 | 1017.4 |
| 20260502061613 | 12 | 21 | 4.8 | 14.5 | 0.00 | 5.28 | 0.00 | 85 | 1020.7 |
| 20260502061555 | 12 | 21 | 3.2 | 14.5 | 0.00 | 5.28 | 0.00 | 84 | 1017.2 |
| 20260502060056 | 12 | 10 | 4.8 | 17.7 | 0.00 | 5.28 | 0.00 | 85 | 1020.9 |
| 20260502060043 | 12 | 5 | 4.8 | 20.9 | 0.00 | 5.28 | 0.00 | 85 | 1017.4 |
| 20260502054555 | 12 | 9 | 6.4 | 20.9 | 0.00 | 5.92 | 0.00 | 85 | 1020.9 |
| 20260502054550 | 12 | 34 | 8.0 | 20.9 | 0.00 | 5.92 | 0.00 | 84 | 1017.5 |
| 20260502053102 | 12 | 28 | 11.3 | 27.4 | 0.00 | 5.92 | 0.00 | 84 | 1020.9 |
| 20260502053052 | 12 | 10 | 11.3 | 27.4 | 0.00 | 5.92 | 0.00 | 84 | 1017.4 |
| 20260502051549 | 12 | 355 | 8.0 | 25.7 | 0.00 | 5.92 | 0.00 | 84 | 1020.6 |
| 20260502050046 | 12 | 23 | 9.7 | 24.1 | 0.00 | 5.92 | 0.00 | 84 | 1016.3 |
| 20260502044543 | 12 | 5 | 4.8 | 24.1 | 0.00 | 5.92 | 5.92 | 84 | 1020.7 |
| 20260502043047 | 12 | 55 | 8.0 | 27.4 | 0.00 | 5.92 | 5.92 | 84 | 1017.1 |
| 20260502043042 | 12 | 49 | 9.7 | 27.4 | 0.00 | 5.92 | 5.92 | 84 | 1020.6 |
| 20260502041550 | 12 | 36 | 12.9 | 30.6 | 0.00 | 5.92 | 5.92 | 84 | 1016.8 |
| 20260502041543 | 12 | 24 | 11.3 | 30.6 | 0.00 | 5.92 | 5.92 | 85 | 1020.3 |
| 20260502040044 | 12 | 321 | 9.7 | 32.2 | 0.00 | 5.92 | 5.92 | 85 | 1017.0 |
| 20260502040040 | 12 | 330 | 11.3 | 30.6 | 0.00 | 5.92 | 5.92 | 85 | 1020.6 |
| 20260502034546 | 12 | 339 | 12.9 | 27.4 | 0.00 | 5.92 | 5.92 | 84 | 1016.9 |
| 20260502034543 | 12 | 348 | 16.1 | 27.4 | 0.00 | 5.92 | 5.92 | 85 | 1020.4 |
| 20260502033048 | 12 | 11 | 11.3 | 30.6 | 0.00 | 5.92 | 5.92 | 84 | 1016.8 |
| 20260502033037 | 12 | 15 | 11.3 | 30.6 | 0.00 | 5.92 | 5.92 | 85 | 1020.1 |
| 20260502031550 | 12 | 40 | 11.3 | 25.7 | 0.00 | 5.92 | 5.92 | 84 | 1016.5 |
| 20260502031535 | 12 | 24 | 14.5 | 25.7 | 0.00 | 5.92 | 5.92 | 85 | 1019.8 |
| 20260502030050 | 12 | 33 | 8.0 | 27.4 | 0.00 | 5.92 | 5.92 | 84 | 1016.4 |
| 20260502030031 | 12 | 33 | 8.0 | 27.4 | 0.00 | 5.92 | 5.92 | 85 | 1019.7 |
| 20260502024545 | 12 | 328 | 9.7 | 25.7 | 0.00 | 5.92 | 5.92 | 84 | 1016.0 |
| 20260502024528 | 12 | 328 | 9.7 | 25.7 | 0.00 | 5.92 | 5.92 | 85 | 1019.0 |
| 20260502023044 | 12 | 29 | 16.1 | 32.2 | 0.00 | 5.92 | 5.92 | 83 | 1015.9 |
| 20260502023026 | 12 | 12 | 17.7 | 32.2 | 0.00 | 5.92 | 5.92 | 84 | 1019.2 |
| 20260502021552 | 13 | 29 | 11.3 | 30.6 | 0.00 | 5.92 | 5.92 | 84 | 1015.5 |
| 20260502021522 | 13 | 53 | 11.3 | 27.4 | 0.00 | 5.92 | 5.92 | 84 | 1018.7 |
| 20260502020118 | 13 | 14 | 16.1 | 30.6 | 0.00 | 5.92 | 5.92 | 84 | 1018.4 |
| 20260502020042 | 13 | 53 | 14.5 | 30.6 | 0.00 | 5.92 | 5.92 | 84 | 1015.1 |
| 20260502014542 | 13 | 5 | 12.9 | 27.4 | 0.00 | 5.92 | 5.92 | 85 | 1014.8 |
| 20260502014514 | 13 | 329 | 11.3 | 27.4 | 0.00 | 5.92 | 5.92 | 86 | 1018.0 |
| 20260502013045 | 14 | 326 | 16.1 | 37.0 | 0.00 | 5.92 | 5.92 | 85 | 1014.4 |
| 20260502013014 | 14 | 23 | 14.5 | 37.0 | 0.00 | 5.92 | 5.92 | 86 | 1017.8 |
| 20260502011543 | 14 | 5 | 12.9 | 30.6 | 0.00 | 5.92 | 5.92 | 85 | 1014.4 |
| 20260502011509 | 14 | 30 | 12.9 | 29.0 | 0.00 | 5.92 | 5.92 | 86 | 1017.7 |
| 20260502010048 | 15 | 49 | 9.7 | 30.6 | 0.00 | 5.92 | 5.92 | 85 | 1013.9 |
| 20260502010004 | 15 | 9 | 9.7 | 30.6 | 0.00 | 5.92 | 5.92 | 85 | 1017.2 |
| 20260502004541 | 15 | 22 | 11.3 | 32.2 | 0.00 | 5.92 | 5.92 | 85 | 1013.8 |
| 20260502004502 | 15 | 355 | 9.7 | 32.2 | 0.00 | 5.92 | 5.92 | 85 | 1017.0 |
| 20260502003106 | 15 | 48 | 8.0 | 24.1 | 0.00 | 5.92 | 5.92 | 86 | 1016.7 |
| 20260502003045 | 15 | 326 | 9.7 | 24.1 | 0.00 | 5.92 | 5.92 | 85 | 1013.5 |
| 20260502001700 | 15 | 21 | 12.9 | 27.4 | 0.00 | 5.92 | 5.92 | 85 | 1016.3 |
| 20260502001543 | 15 | 47 | 12.9 | 25.7 | 0.00 | 5.92 | 5.92 | 84 | 1013.1 |
| 20260502000058 | 15 | 44 | 11.3 | 33.8 | 0.00 | 5.92 | 5.92 | 85 | 1015.8 |
| 20260502000045 | 15 | 26 | 14.5 | 33.8 | 0.00 | 5.92 | 5.92 | 84 | 1013.0 |
| 20260501234559 | 16 | 340 | 16.1 | 38.6 | 0.00 | 5.92 | 5.92 | 84 | 1015.3 |
| 20260501234546 | 16 | 344 | 16.1 | 38.6 | 0.00 | 5.92 | 5.92 | 83 | 1012.5 |
| 20260501233058 | 16 | 348 | 11.3 | 41.8 | 0.00 | 5.92 | 5.92 | 84 | 1015.1 |
| 20260501233046 | 16 | 18 | 14.5 | 41.8 | 0.00 | 5.92 | 5.92 | 83 | 1012.4 |
| 20260501231559 | 16 | 360 | 14.5 | 37.0 | 0.00 | 5.92 | 5.92 | 83 | 1015.0 |
| 20260501231546 | 16 | 341 | 14.5 | 37.0 | 0.00 | 5.92 | 5.92 | 82 | 1012.1 |
| 20260501230101 | 16 | 360 | 14.5 | 30.6 | 0.00 | 5.92 | 5.92 | 83 | 1014.4 |
| 20260501230056 | 16 | 31 | 14.5 | 30.6 | 0.00 | 5.92 | 5.92 | 83 | 1011.4 |
| 20260501224554 | 17 | 51 | 17.7 | 37.0 | 0.00 | 5.92 | 5.92 | 84 | 1014.4 |
| 20260501224551 | 17 | 26 | 16.1 | 37.0 | 0.00 | 5.92 | 5.92 | 83 | 1011.3 |
| 20260501223102 | 17 | 332 | 17.7 | 40.2 | 0.00 | 5.92 | 5.92 | 84 | 1014.6 |
| 20260501223051 | 17 | 5 | 17.7 | 40.2 | 0.00 | 5.92 | 5.92 | 83 | 1011.7 |
| 20260501221553 | 16 | 334 | 12.9 | 35.4 | 0.00 | 5.92 | 5.92 | 86 | 1014.6 |
| 20260501221541 | 16 | 344 | 11.3 | 35.4 | 0.00 | 5.92 | 5.92 | 85 | 1011.6 |
| 20260501220054 | 16 | 334 | 12.9 | 30.6 | 0.00 | 5.92 | 5.92 | 86 | 1014.8 |
| 20260501220047 | 16 | 338 | 12.9 | 30.6 | 0.00 | 5.92 | 5.92 | 85 | 1011.8 |
| 20260501214557 | 17 | 19 | 11.3 | 32.2 | 0.00 | 5.92 | 5.92 | 86 | 1014.6 |
| 20260501214554 | 17 | 351 | 9.7 | 32.2 | 0.00 | 5.92 | 5.92 | 86 | 1011.7 |
| 20260501213056 | 17 | 319 | 17.7 | 40.2 | 0.00 | 5.92 | 5.92 | 86 | 1014.2 |
| 20260501213043 | 17 | 350 | 14.5 | 40.2 | 0.00 | 5.92 | 5.92 | 86 | 1011.2 |
| 20260501211558 | 17 | 322 | 14.5 | 33.8 | 0.00 | 5.92 | 5.92 | 87 | 1014.0 |
| 20260501211544 | 17 | 335 | 14.5 | 33.8 | 0.00 | 5.92 | 5.92 | 86 | 1011.1 |
| 20260501210050 | 17 | 103 | 6.4 | 33.8 | 0.00 | 5.92 | 5.92 | 88 | 1014.2 |
| 20260501210048 | 17 | 0 | 8.0 | 33.8 | 0.00 | 5.92 | 5.92 | 88 | 1011.3 |
| 20260501204618 | 17 | 355 | 11.3 | 35.4 | 0.00 | 5.92 | 5.92 | 89 | 1014.1 |
| 20260501204615 | 17 | 327 | 12.9 | 35.4 | 0.00 | 5.92 | 5.92 | 88 | 1011.2 |
| 20260501203048 | 18 | 335 | 12.9 | 29.0 | 0.00 | 5.92 | 5.92 | 89 | 1014.4 |
| 20260501203043 | 18 | 346 | 9.7 | 29.0 | 0.00 | 5.92 | 5.92 | 88 | 1011.4 |
| 20260501201548 | 18 | 5 | 8.0 | 27.4 | 0.00 | 5.92 | 5.92 | 88 | 1014.2 |
| 20260501201543 | 18 | 306 | 8.0 | 30.6 | 0.00 | 5.92 | 5.92 | 88 | 1011.4 |
| 20260501200047 | 18 | 360 | 12.9 | 20.9 | 0.00 | 5.92 | 5.92 | 85 | 1013.8 |
| 20260501200043 | 18 | 325 | 9.7 | 20.9 | 0.00 | 5.92 | 5.92 | 84 | 1011.1 |
| 20260501194647 | 19 | 9 | 9.7 | 24.1 | 0.00 | 5.92 | 5.92 | 83 | 1013.7 |
| 20260501194550 | 19 | 24 | 12.9 | 29.0 | 0.00 | 5.92 | 5.92 | 83 | 1010.6 |
| 20260501193046 | 19 | 28 | 12.9 | 27.4 | 0.00 | 5.92 | 5.92 | 84 | 1012.9 |
| 20260501193044 | 19 | 5 | 12.9 | 27.4 | 0.00 | 5.92 | 5.92 | 84 | 1009.6 |
| 20260501191545 | 18 | 39 | 16.1 | 29.0 | 0.00 | 5.92 | 5.92 | 91 | 1012.4 |
| 20260501191541 | 18 | 5 | 14.5 | 29.0 | 0.00 | 5.92 | 5.92 | 91 | 1009.2 |
| 20260501190044 | 18 | 39 | 9.7 | 29.0 | 0.00 | 5.92 | 5.92 | 94 | 1012.8 |
| 20260501190042 | 18 | 29 | 8.0 | 25.7 | 0.00 | 5.92 | 5.92 | 94 | 1009.5 |
| 20260501184545 | 17 | 28 | 12.9 | 30.6 | 0.00 | 5.92 | 5.92 | 97 | 1009.9 |
| 20260501183052 | 17 | 15 | 17.7 | 32.2 | 0.00 | 5.92 | 5.92 | 97 | 1010.8 |
| 20260501183045 | 17 | 331 | 16.1 | 32.2 | 0.00 | 5.92 | 5.92 | 97 | 1013.9 |
| 20260501181555 | 16 | 5 | 9.7 | 25.7 | 0.00 | 5.92 | 5.92 | 97 | 1011.2 |
| 20260501181549 | 16 | 19 | 6.4 | 25.7 | 0.00 | 5.92 | 5.92 | 98 | 1014.1 |
| 20260501180059 | 16 | 17 | 8.0 | 20.9 | 0.03 | 5.92 | 5.92 | 96 | 1011.6 |
| 20260501180042 | 16 | 19 | 8.0 | 19.3 | 0.03 | 5.92 | 5.92 | 97 | 1014.4 |
| 20260501174547 | 16 | 337 | 8.0 | 20.9 | 0.08 | 5.92 | 5.92 | 96 | 1011.4 |
| 20260501174544 | 16 | 5 | 6.4 | 17.7 | 0.05 | 5.92 | 5.92 | 97 | 1014.1 |
| 20260501173055 | 16 | 352 | 12.9 | 27.4 | 0.10 | 5.92 | 5.92 | 96 | 1011.3 |
| 20260501173045 | 16 | 355 | 11.3 | 27.4 | 0.10 | 5.92 | 5.92 | 97 | 1014.1 |
| 20260501171545 | 16 | 340 | 11.3 | 25.7 | 0.33 | 5.92 | 5.92 | 96 | 1011.4 |
| 20260501171540 | 16 | 322 | 12.9 | 25.7 | 0.33 | 5.92 | 5.92 | 97 | 1014.1 |
| 20260501170044 | 16 | 334 | 11.3 | 22.5 | 0.30 | 5.89 | 5.89 | 96 | 1011.1 |
| 20260501164553 | 16 | 62 | 4.8 | 19.3 | 0.25 | 5.84 | 5.84 | 96 | 1010.7 |
| 20260501164549 | 16 | 29 | 4.8 | 19.3 | 0.25 | 5.82 | 5.82 | 97 | 1013.5 |
| 20260501163047 | 16 | 39 | 9.7 | 20.9 | 0.23 | 5.82 | 5.82 | 95 | 1009.6 |
| 20260501163044 | 16 | 43 | 11.3 | 20.9 | 0.23 | 5.82 | 5.82 | 96 | 1012.7 |
| 20260501161545 | 17 | 44 | 9.7 | 30.6 | 0.00 | 5.59 | 5.59 | 96 | 1010.1 |
| 20260501161538 | 17 | 77 | 9.7 | 30.6 | 0.00 | 5.59 | 5.59 | 96 | 1013.0 |
| 20260501160137 | 17 | 70 | 12.9 | 29.0 | 0.00 | 5.59 | 5.59 | 97 | 1012.6 |
| 20260501160056 | 17 | 50 | 11.3 | 29.0 | 0.00 | 5.59 | 5.59 | 97 | 1009.4 |
| 20260501154546 | 17 | 55 | 9.7 | 24.1 | 0.15 | 5.59 | 5.59 | 97 | 1010.2 |
| 20260501154541 | 16 | 19 | 8.0 | 22.5 | 0.15 | 5.59 | 5.59 | 98 | 1013.2 |
| 20260501153050 | 17 | 80 | 11.3 | 32.2 | 0.18 | 5.59 | 5.59 | 98 | 1010.4 |
| 20260501153038 | 17 | 33 | 12.9 | 27.4 | 0.18 | 5.59 | 5.59 | 98 | 1013.2 |
| 20260501151542 | 16 | 338 | 12.9 | 30.6 | 0.18 | 5.59 | 5.59 | 97 | 1010.1 |
| 20260501151536 | 16 | 338 | 9.7 | 30.6 | 0.18 | 5.59 | 5.59 | 98 | 1013.0 |